Regional Weather Roundup
Issued by NWS

Home | Current Version | Previous Version | Graphics & Text | Print | Product List | Glossary On
Versions: 1 2 3 4 5 6 7 8 9 10 11 12 13 14 15 16 17 18 19 20 21 22 23 24 25 26 27 28 29 30 31 32 33 34 35 36 37 38 39 40 41 42 43 44 45 46 47 48 49 50
000
ASUS43 KLMK 252210
RWRKY
KENTUCKY REGIONAL WEATHER ROUNDUP
NATIONAL WEATHER SERVICE LOUISVILLE KY
600 PM EDT MON MAY 25 2015

NOTE "FAIR" INDICATES FEW OR NO CLOUDS BELOW 12,000 FEET
WITH NO SIGNIFICANT WEATHER AND/OR OBSTRUCTIONS TO VISIBILITY.

KYZ001>023-026-027-061>063-070>075-252300-
WESTERN AND SOUTH CENTRAL KENTUCKY

CITY           SKY/WX    TMP DP  RH WIND       PRES   REMARKS
PADUCAH        CLOUDY    75  68  78 SE12      30.05F
HENDERSON      CLOUDY    73  66  78 S14       30.05F
OWENSBORO      CLOUDY    73  68  84 S13       30.09F
HOPKINSVILLE   CLOUDY    73  68  86 S6        30.09F
BOWLING GREEN  CLOUDY    73  67  81 S9        30.11F
GLASGOW        CLOUDY    72  64  78 SW8       30.13S
$$

KYZ024-025-028>034-038-045-046-053-252300-
NORTH CENTRAL KENTUCKY

CITY           SKY/WX    TMP DP  RH WIND       PRES   REMARKS
LOUISVILLE/SDF CLOUDY    73  66  78 S9        30.11F
LOUISVILLE/LOU CLOUDY    72  66  81 S8        30.12F
FORT KNOX      CLOUDY    71  66  83 S6        30.11S
$$

KYZ035>037-039>044-047>052-055>060-089>105-252300-
NORTHEAST KENTUCKY

CITY           SKY/WX    TMP DP  RH WIND       PRES   REMARKS
LEXINGTON      LGT RAIN  73  65  75 SW3       30.15F
COVINGTON      PTSUNNY   74  64  71 S16G23    30.12F
FRANKFORT      CLOUDY    74  63  68 SW9       30.13F
$$

KYZ054-064>069-076>088-106>120-252300-
SOUTHEAST KENTUCKY

CITY           SKY/WX    TMP DP  RH WIND       PRES   REMARKS
JACKSON        PTSUNNY   80  62  54 CALM      30.18S
LONDON         PTSUNNY   83  58  42 S12       30.16F
SOMERSET       CLOUDY    77  61  57 S7        30.15F
MIDDLESBORO    PTSUNNY   82  62  50 S7        30.18F
MONTICELLO     CLOUDY    79  66  64 SW8       30.18S
$$



USA.gov is the U.S. government's official web portal to all federal, state and local government web resources and services.